This is the latest recevied weather packets stored in our database for station/object EB1BCG-1. If no packets are shown the sender has not sent any weather packets the latest 10 day(s).
| Time | Temp. | Humidity | Pressure | Rain* | Wind** | Luminosity | Snow |
|---|---|---|---|---|---|---|---|
| 1778008823 | 8.33° C | 62% | 1011.2 hPa | 0 mm | 0 m/s | - | - |
| 1778008216 | 8.89° C | 61% | 1011 hPa | 0 mm | 0 m/s | - | - |
| 1778007002 | 9.44° C | 58% | 1010.9 hPa | 0 mm | 0 m/s | - | - |
| 1778006395 | 9.44° C | 56% | 1010.8 hPa | 0 mm | 0 m/s | - | - |
| 1778005790 | 10° C | 53% | 1010.7 hPa | 0 mm | 0 m/s | - | - |
| 1778005182 | 10.56° C | 50% | 1010.5 hPa | 0 mm | 0 m/s | - | - |
| 1778004575 | 11.67° C | 49% | 1010.3 hPa | 0 mm | 0 m/s | - | - |
| 1778003970 | 11.67° C | 49% | 1010.1 hPa | 0 mm | 0 m/s | - | - |
| 1778003361 | 12.22° C | 49% | 1010.1 hPa | 0 mm | 0 m/s | - | - |
| 1778002754 | 12.22° C | 49% | 1010.2 hPa | 0 mm | 0 m/s | - | - |
| 1778001541 | 12.22° C | 49% | 1010.3 hPa | 0 mm | 0 m/s | - | - |
| 1778000934 | 12.78° C | 51% | 1010.1 hPa | 0 mm | 0 m/s | - | - |
| 1778000330 | 13.33° C | 49% | 1010.1 hPa | 0 mm | 0 m/s | - | - |
| 1777999721 | 13.33° C | 48% | 1010.1 hPa | 0 mm | 0 m/s | - | - |
| 1777999114 | 14.44° C | 49% | 1010 hPa | 0 mm | 0 m/s | - | - |
| 1777998509 | 15° C | 48% | 1010 hPa | 0 mm | 0 m/s | - | - |
| 1777997900 | 14.44° C | 48% | 1010 hPa | 0 mm | 0 m/s | - | - |
| 1777997293 | 15° C | 44% | 1010 hPa | 0 mm | 0 m/s | - | - |
| 1777996689 | 13.89° C | 48% | 1010 hPa | 0 mm | 0 m/s | - | - |
| 1777996081 | 15° C | 46% | 1010 hPa | 0 mm | 0 m/s | - | - |
| 1777995473 | 14.44° C | 49% | 1010 hPa | 0 mm | 0 m/s | - | - |
| 1777994260 | 14.44° C | 47% | 1010.1 hPa | 0 mm | 0 m/s | - | - |
| 1777993653 | 15° C | 48% | 1010 hPa | 0 mm | 0 m/s | - | - |
| 1777993049 | 15.56° C | 46% | 1010 hPa | 0 mm | 0 m/s | - | - |
| 1777992439 | 16.11° C | 50% | 1010 hPa | 0 mm | 0 m/s | - | - |
* Rain latest hour (hover to see other rain measurements)
** Current wind speed in m/s (hover to see current wind gust speed)